Simultaneous Nadir Overpasses (SNOs) Predictions

Prediction of SNOs between NOAA-15 and METOP-C Satellite Orbit:

Table of predicted SNOs for the next 14.0 days since TLE Epoch: 8/14/2020
Index Date (NOAA-15) Time (NOAA-15) Lat,Lon (NOAA-15) SZA (NOAA-15 ) Date (METOP-C) Time (METOP-C) Lat,Lon (METOP-C) SZA (METOP-C ) Distance(km) Time Diff (sec)
1 08/19/2020 21:10:15 80.95,-101.73 70.21 08/19/2020 21:09:04 80.95,-101.68 70.19 1.03 71
2 08/19/2020 22:00:47 -80.95, 65.54 109.79 08/19/2020 21:59:45 -80.94, 65.39 109.84 2.90 62
3 08/19/2020 22:51:18 80.96,-127.20 70.22 08/19/2020 22:50:26 80.94,-127.18 70.19 1.52 52
4 08/19/2020 23:41:49 -80.94, 40.44 109.76 08/19/2020 23:41:06 -80.95, 40.25 109.79 3.26 43
5 08/20/2020 00:32:20 80.95,-152.30 70.25 08/20/2020 00:31:47 80.95,-152.32 70.24 0.49 33
6 08/20/2020 01:22:52 -80.95, 14.98 109.74 08/20/2020 01:22:27 -80.96, 15.11 109.74 2.43 25
7 08/20/2020 02:13:23 80.96,-177.77 70.27 08/20/2020 02:13:09 80.94,-177.83 70.24 1.82 14
8 08/20/2020 03:03:55 -80.96, -10.49 109.73 08/20/2020 03:03:49 -80.95, -10.39 109.74 2.22 6
9 08/20/2020 03:54:25 80.95, 157.12 70.30 08/20/2020 03:54:30 80.95, 157.03 70.29 1.58 5
10 08/20/2020 04:44:57 -80.95, -35.59 109.70 08/20/2020 04:45:10 -80.96, -35.53 109.69 1.08 13
11 08/20/2020 05:35:28 80.96, 131.65 70.31 08/20/2020 05:35:52 80.95, 131.53 70.30 2.71 24
12 08/20/2020 06:26:00 -80.96, -61.05 109.69 08/20/2020 06:26:32 -80.95, -61.03 109.68 1.48 32
13 08/20/2020 07:16:30 80.95, 106.55 70.34 08/20/2020 07:17:13 80.95, 106.39 70.35 2.79 43
14 08/20/2020 08:07:02 -80.96, -86.15 109.66 08/20/2020 08:07:53 -80.96, -86.17 109.63 0.58 51
15 08/20/2020 08:57:33 80.96, 81.08 70.35 08/20/2020 08:58:34 80.96, 81.25 70.39 2.98 61
